Location: Udine
(46.0620°N, 13.2420°E)
Time: 17:51:10
(UTC+02:00)

ISS - Visible Passes

Search period start: 24 September 2022 00:00
Search period end: 04 October 2022 00:00
Orbit: 414 x 417 km, 51.6° (Epoch: 24 September)

Date Brightness Start Highest point End Pass type
(mag) Time Alt. Az. Time Alt. Az. Time Alt. Az.
24 Sep -2.3 19:45:52 10° WNW 19:48:57 32° N 19:52:02 10° ENE visible
24 Sep -1.9 21:23:04 10° WNW 21:25:11 28° NNW 21:25:11 28° NNW visible
25 Sep -2.5 20:34:24 10° WNW 20:37:28 32° N 20:38:21 27° NE visible
25 Sep -0.2 22:11:09 10° WNW 22:11:13 11° WNW 22:11:13 11° WNW visible
26 Sep -2.3 19:45:39 10° WNW 19:48:41 30° N 19:51:30 11° ENE visible
26 Sep -1.8 21:22:31 10° WNW 21:24:23 29° NW 21:24:23 29° NW visible
27 Sep -3.1 20:33:52 10° WNW 20:37:06 43° NNE 20:37:33 40° NE visible
28 Sep -2.7 19:45:10 10° WNW 19:48:18 35° NNE 19:50:43 15° ENE visible
28 Sep -1.6 21:21:53 10° WNW 21:23:36 27° WNW 21:23:36 27° WNW visible
29 Sep -3.9 20:33:11 10° WNW 20:36:33 77° NNE 20:36:48 71° ENE visible
30 Sep -3.4 19:44:29 10° WNW 19:47:48 54° NNE 19:50:02 19° E visible
30 Sep -1.3 21:21:25 10° WNW 21:22:55 21° W 21:22:55 21° W visible
01 Oct -3.2 20:32:32 10° WNW 20:35:47 48° SW 20:36:12 45° S visible
02 Oct -3.7 19:43:43 10° WNW 19:47:05 77° SSW 19:49:33 17° SE visible
02 Oct -0.7 21:21:44 10° WSW 21:22:27 12° WSW 21:22:27 12° WSW visible
03 Oct -1.6 20:32:11 10° W 20:34:45 21° SW 20:35:54 17° SSW visible
